Wetbulb
56.35 56.46 56.59 56.67 56.83 54.38 50.39 47.21 40.98 52.11 52.39 39.60 40.29 35.19 39.18 41.80 41.80 43.84 40.83 40.86 38.92 37.68 38.34 37.11 37.57 37.40 41.16 45.72 45.21 40.10 43.77 42.14 37.68 36.58 41.36 46.04 46.63 43.84 44.26 39.48 35.68 38.72 38.52 40.91
55.92 56.23 56.20 56.44 56.42 52.62 45.75 43.83 45.85 52.03 49.61 37.73 36.42 39.22 39.82 41.52 39.69 42.05 40.23 39.39 41.45 41.71 38.44 35.99 38.96 40.92 44.85 46.31 45.52 43.88 45.01 40.53 35.29 35.98 40.33 40.29 40.62 41.50 45.93 43.96 41.27 38.84 37.50 40.41
55.62 55.71 55.55 55.79 56.06 54.19 47.78 44.86 41.29 45.63 45.85 45.48 41.56 38.59 38.10 37.82 43.85 42.72 41.40 43.33 43.73 40.37 38.28 41.39 39.00 41.16 44.29 46.96 46.55 47.77 45.72 41.91 40.85 36.17 39.35 42.67 39.55 42.60 42.14 43.49 39.95 40.18 39.91 42.93
55.62 55.33 55.06 55.27 55.56 53.68 47.49 44.54 42.72 45.40 38.78 39.80 41.61 41.85 43.23 38.83 40.20 44.49 44.94 42.61 41.87 39.48 36.27 38.60 39.63 43.07 44.39 46.11 46.64 46.23 45.61 39.89 41.47 42.79 43.38 42.78 42.27 41.64 43.33 39.55 42.49 39.96 43.05 41.91
55.56 55.00 54.58 54.74 55.04 53.62 46.31 42.72 41.33 42.23 43.55 44.88 42.65 41.64 41.78 42.61 42.74 43.57 43.52 41.59 43.04 43.39 39.54 39.35 40.04 43.63 43.48 43.24 45.97 44.84 45.74 40.53 40.95 38.36 40.43 42.29 40.42 42.52 44.01 42.99 43.23 43.72 43.88 43.18
55.44 54.74 54.19 54.41 54.72 51.99 45.53 44.40 45.13 43.68 43.16 42.10 41.36 41.91 42.80 43.97 43.49 43.93 44.08 45.43 43.87 43.52 46.07 47.18 49.07 49.39 48.81 47.76 44.97 43.57 43.71 41.95 40.02 37.43 38.70 39.33 36.42 41.15 41.59 42.84 44.31 43.76 40.53 45.73
53.95 54.61 54.23 54.27 54.36 52.10 47.55 44.70 46.54 42.30 39.46 41.18 40.64 40.70 44.06 43.03 43.47 42.76 42.39 46.52 45.30 44.68 47.25 48.46 49.33 47.79 47.19 48.05 46.15 46.97 43.76 42.65 41.08 36.67 37.15 30.93 42.15 42.61 45.55 43.40 44.78 45.51 45.21 44.70
52.83 54.55 54.26 54.22 54.62 52.88 48.67 45.80 46.72 43.74 40.03 42.18 40.21 39.96 40.40 40.00 40.48 39.65 41.32 40.36 41.57 45.05 44.99 43.89 40.31 39.67 39.55 39.11 40.30 40.03 43.87 41.92 36.36 36.18 35.03 39.36 38.82 39.82 40.52 41.01 42.24 44.55 44.57 44.15
53.40 54.10 53.96 53.90 54.46 54.40 48.77 46.24 48.37 44.80 40.37 41.18 41.67 39.17 41.23 38.92 37.31 38.30 38.81 41.73 42.65 44.97 44.93 43.15 36.31 33.80 36.37 34.04 36.77 38.96 39.01 39.30 40.01 35.36 32.92 33.02 40.21 42.18 44.70 45.33 38.83 44.48 44.76 44.40
54.18 53.61 53.32 53.44 54.17 53.85 49.41 47.20 49.05 46.19 41.16 42.70 41.06 41.34 40.98 42.36 40.70 36.99 36.98 39.20 41.59 43.07 41.15 37.94 36.70 34.50 40.04 33.95 33.29 35.02 34.66 34.74 35.61 36.14 34.71 38.43 41.59 43.17 45.14 36.62 40.13 44.59 45.38 45.30
53.04 53.38 53.05 53.42 53.95 53.73 50.74 48.01 49.27 48.15 42.85 44.15 44.69 43.18 40.73 40.67 41.82 39.85 38.16 39.68 39.59 39.97 38.23 38.30 37.58 37.39 39.32 37.30 38.95 37.80 36.28 35.63 35.04 36.26 33.79 33.93 43.96 42.30 40.91 43.28 45.22 45.20 45.47 45.17
50.89 53.21 53.13 53.63 53.85 53.73 52.15 47.29 49.13 49.22 46.06 45.23 47.00 47.47 47.02 43.46 43.65 40.91 38.34 41.85 40.29 43.06 39.06 39.75 38.78 36.69 36.73 38.75 34.24 38.27 36.59 42.40 39.77 40.19 39.79 41.35 42.71 43.05 44.00 47.09 44.98 44.56 44.62 44.50
50.22 53.25 53.65 53.98 54.05 54.32 52.44 48.90 48.39 48.10 46.77 46.35 46.01 45.19 48.41 48.36 47.46 47.92 43.52 43.07 42.93 42.74 44.56 41.56 39.78 38.91 39.69 37.14 38.02 37.80 38.51 40.44 39.48 38.46 39.69 40.53 41.87 42.89 44.56 45.83 44.46 44.48 44.59 44.15
50.34 53.75 53.97 53.67 53.79 54.21 52.78 49.15 48.82 49.66 47.08 43.11 43.74 48.25 46.27 48.47 47.64 46.31 46.27 45.23 45.36 45.30 45.78 43.91 42.13 40.25 39.12 39.32 39.56 39.96 40.78 40.80 38.97 37.19 39.07 40.72 41.86 43.73 43.66 43.00 43.49 42.95 43.09 43.30
51.38 53.53 53.38 53.29 53.17 53.68 51.83 50.47 50.20 50.51 47.90 42.63 43.20 46.08 47.14 48.02 47.10 45.70 46.39 45.92 45.31 45.32 44.67 44.50 42.48 40.73 40.58 38.80 39.77 39.39 41.19 41.12 40.61 41.05 43.39 44.18 43.47 43.68 43.75 42.78 42.56 42.94 41.50 40.34
52.46 52.62 52.63 52.63 52.80 51.99 49.54 45.81 48.67 49.64 49.11 45.15 40.02 45.44 44.59 47.04 47.70 46.82 46.09 45.70 44.52 43.81 44.33 41.90 42.57 42.79 41.99 40.77 39.90 41.72 42.53 42.43 43.00 43.74 45.32 42.44 45.06 44.19 44.09 42.96 42.34 41.75 42.33 41.84
52.16 52.09 52.00 52.28 51.91 49.27 45.32 44.05 46.95 49.38 49.08 42.18 37.01 39.95 43.29 44.97 46.34 45.96 46.24 46.62 45.44 45.75 42.61 42.00 42.03 42.34 42.73 40.32 39.97 41.70 42.19 43.03 41.69 42.59 42.35 39.72 42.25 41.24 41.75 41.33 40.41 39.81 38.80 39.27
51.84 51.78 52.02 51.08 49.85 48.52 46.08 48.77 48.47 48.98 43.89 41.90 33.57 36.34 40.41 44.44 42.20 42.19 44.91 44.40 45.37 43.50 42.76 42.71 41.89 41.39 41.35 37.85 41.84 40.16 41.33 40.92 40.50 39.31 39.36 43.39 40.47 39.49 38.61 38.98 38.46 37.46 37.37 37.54
51.48 51.32 50.21 47.78 45.72 43.69 45.50 48.10 47.76 47.73 44.74 36.20 36.51 35.00 34.59 42.80 40.88 41.64 40.92 42.28 38.20 41.87 40.41 40.96 41.82 40.07 36.31 41.95 41.34 39.57 39.58 40.79 38.95 36.47 36.97 37.96 36.87 34.59 35.17 36.36 36.76 36.46 35.81 35.92
50.05 48.01 43.37 39.41 43.23 47.47 46.70 45.00 43.81 39.37 40.18 40.13 37.26 39.29 36.94 39.73 38.97 36.82 37.77 37.67 36.00 33.59 37.54 40.48 37.12 37.73 42.01 40.99 41.20 42.33 40.81 39.09 38.19 35.11 33.25 33.82 33.08 33.90 35.02 36.17 37.02 36.64 35.09 34.87
44.79 39.79 38.29 42.69 45.46 42.51 39.24 36.37 37.90 36.99 34.37 38.62 38.13 38.37 36.91 40.30 36.32 35.44 36.83 34.35 34.33 32.67 34.70 35.52 34.24 32.98 37.36 38.88 38.66 39.99 38.72 38.78 39.89 41.14 40.31 39.62 38.57 36.68 35.90 34.38 34.68 34.45 34.64 34.62
43.00 41.97 42.76 41.30 37.88 36.17 34.31 32.97 33.55 33.12 31.98 36.43 36.13 36.95 38.34 37.51 38.27 35.46 34.48 32.19 31.45 29.31 35.77 33.29 30.35 34.64 33.29 36.15 36.15 37.14 37.81 38.17 37.19 38.57 38.89 38.21 38.38 36.89 35.58 34.82 34.37 34.66 35.04 35.05
43.44 39.85 36.69 36.85 33.64 30.16 29.23 27.22 29.41 31.92 34.77 34.62 34.90 34.11 36.96 36.31 37.20 32.29 32.72 29.99 29.97 33.44 31.17 29.65 32.73 31.31 32.52 33.29 35.07 35.57 37.20 35.56 34.66 33.99 34.50 34.78 33.84 34.72 35.09 34.62 34.79 35.17 34.61 34.50
35.38 32.57 31.45 32.34 30.07 32.09 30.76 31.50 32.17 34.34 35.18 35.74 36.44 34.15 34.75 35.17 34.26 33.51 29.45 29.60 30.55 26.37 23.95 25.83 30.55 31.28 31.67 32.19 33.46 35.50 34.27 33.35 33.04 32.99 33.85 33.72 33.83 33.59 33.75 34.32 34.15 33.74 33.26 32.51
32.68 33.70 30.59 31.24 28.15 27.31 26.62 29.60 32.94 35.00 38.09 36.23 34.54 34.13 34.37 31.43 30.96 32.17 29.72 26.95 25.13 26.47 25.51 29.36 30.31 31.43 31.15 31.23 33.24 34.34 32.45 31.69 31.91 32.82 32.65 32.20 31.74 31.87 31.27 32.12 32.38 32.61 31.80 31.17
32.28 31.14 27.64 27.45 27.91 26.55 28.93 31.06 32.88 34.84 37.45 35.51 35.15 30.62 29.17 27.45 30.10 26.87 25.55 25.01 23.77 28.13 30.90 31.17 31.16 31.50 31.28 31.21 32.59 32.43 31.95 31.99 31.43 31.23 30.71 30.73 30.54 30.42 30.16 28.54 29.19 29.47 29.33 27.88
31.51 28.86 29.25 27.04 27.68 28.12 29.74 32.03 34.64 36.31 35.92 31.87 31.74 29.90 28.40 29.30 26.53 26.12 26.53 26.35 29.77 30.02 28.81 30.25 32.64 31.74 31.12 31.02 30.38 30.28 30.30 30.38 30.39 30.14 29.78 29.44 28.78 28.10 27.54 27.64 24.24 23.73 24.11 23.34
MSLP
1005.05 1005.64 1006.00 1006.31 1006.63 1007.27 1007.99 1008.04 1007.91 1007.38 1007.98 1009.00 1008.54 1007.53 1007.05 1006.94 1006.35 1006.47 1006.60 1006.11 1005.33 1005.02 1005.28 1005.58 1005.92 1005.80 1005.75 1006.19 1006.69 1007.22 1007.29 1006.18 1006.81 1007.94 1007.85 1007.35 1007.00 1007.10 1007.00 1006.20 1006.12 1005.54 1004.65 1003.53
1004.41 1005.01 1005.33 1005.70 1006.11 1006.56 1007.31 1007.10 1007.08 1007.36 1007.42 1007.07 1006.81 1006.51 1006.19 1006.13 1005.82 1005.10 1005.46 1005.35 1004.48 1004.35 1004.34 1004.84 1005.48 1005.11 1005.19 1005.75 1005.90 1005.85 1006.04 1005.74 1005.84 1007.03 1007.75 1007.60 1007.12 1006.87 1006.26 1006.14 1005.69 1004.61 1004.10 1003.46
1003.75 1004.36 1004.67 1005.09 1005.48 1006.00 1006.58 1006.72 1006.49 1006.80 1007.11 1005.95 1005.61 1005.45 1005.19 1004.92 1004.23 1004.38 1004.54 1003.71 1003.40 1003.50 1003.59 1003.78 1004.24 1004.50 1004.87 1005.14 1005.09 1005.43 1005.70 1004.98 1004.29 1004.35 1004.62 1005.43 1006.06 1006.06 1005.91 1005.46 1004.58 1003.84 1003.43 1002.99
1003.07 1003.74 1004.06 1004.48 1004.92 1005.50 1006.13 1005.98 1005.12 1004.91 1005.26 1004.98 1004.65 1004.54 1003.66 1003.36 1003.12 1003.36 1003.32 1003.29 1002.62 1002.14 1002.43 1003.07 1003.22 1003.64 1004.16 1004.82 1004.95 1005.41 1005.48 1004.32 1004.35 1004.22 1004.42 1004.50 1004.58 1004.78 1005.07 1004.76 1004.02 1003.37 1002.62 1003.02
1002.46 1003.05 1003.41 1003.86 1004.39 1004.99 1005.61 1005.01 1004.86 1004.79 1003.75 1003.53 1003.31 1003.35 1002.65 1002.11 1002.16 1002.14 1001.85 1001.89 1002.16 1001.61 1001.51 1001.59 1001.58 1002.37 1002.80 1003.36 1004.58 1004.76 1005.11 1004.15 1004.25 1004.29 1004.47 1004.39 1004.15 1003.91 1003.74 1003.63 1003.46 1003.05 1002.90 1002.67
1001.94 1002.53 1002.87 1003.33 1003.83 1004.40 1004.70 1004.72 1004.57 1004.04 1002.64 1002.49 1002.54 1002.22 1001.77 1001.63 1001.78 1001.98 1001.60 1000.92 1001.42 1001.39 1001.15 1001.20 1000.92 1002.07 1002.41 1002.51 1003.29 1004.09 1004.42 1004.28 1004.29 1004.13 1004.51 1004.51 1004.05 1003.13 1003.21 1002.96 1002.89 1002.70 1002.54 1002.21
1001.69 1001.78 1002.19 1002.70 1003.26 1003.60 1003.87 1004.10 1003.99 1003.58 1002.23 1002.00 1001.82 1001.84 1001.73 1001.77 1001.88 1001.87 1002.13 1001.50 1001.50 1001.99 1001.70 1001.55 1001.87 1002.63 1002.93 1002.98 1003.93 1004.26 1004.34 1004.55 1004.68 1004.63 1004.70 1004.18 1002.59 1002.61 1002.17 1002.44 1002.32 1002.67 1002.74 1003.39
1001.31 1001.21 1001.51 1002.05 1002.63 1003.12 1003.53 1003.79 1003.78 1003.23 1002.27 1001.67 1001.76 1001.66 1001.85 1002.25 1002.37 1002.80 1002.93 1003.32 1003.22 1002.59 1002.28 1002.15 1002.87 1003.88 1004.62 1004.86 1005.04 1004.95 1004.66 1004.98 1005.25 1005.00 1004.43 1003.32 1002.74 1002.76 1002.63 1002.37 1001.96 1002.64 1003.09 1004.10
1000.24 1000.63 1001.03 1001.55 1002.09 1002.45 1003.11 1003.39 1003.49 1003.29 1002.73 1001.36 1001.53 1001.78 1001.77 1002.08 1002.78 1003.48 1003.84 1003.98 1003.59 1003.01 1002.43 1002.55 1003.11 1003.81 1004.41 1005.24 1005.51 1005.70 1005.19 1005.77 1005.88 1005.91 1005.02 1003.33 1002.34 1002.57 1002.72 1002.69 1002.34 1002.49 1003.29 1004.21
999.66 1000.18 1000.60 1001.06 1001.52 1001.95 1002.49 1002.86 1003.10 1003.09 1002.57 1001.94 1001.96 1001.75 1001.68 1001.78 1002.59 1003.57 1004.12 1004.08 1003.76 1003.33 1002.99 1003.09 1003.32 1003.76 1003.96 1004.47 1004.79 1005.54 1005.90 1006.22 1006.13 1006.12 1005.46 1003.36 1002.87 1003.09 1003.20 1003.35 1003.42 1003.40 1004.00 1004.93
999.72 999.79 1000.13 1000.58 1001.06 1001.52 1002.00 1002.47 1002.79 1002.77 1002.42 1002.28 1002.28 1002.09 1001.99 1001.97 1002.07 1002.63 1003.84 1004.06 1004.15 1003.96 1003.52 1003.40 1003.30 1003.33 1003.69 1003.76 1003.87 1004.17 1004.71 1005.48 1005.58 1006.21 1005.87 1004.15 1003.45 1003.99 1003.51 1003.80 1004.17 1004.55 1005.19 1006.09
999.55 999.28 999.66 1000.12 1000.61 1001.05 1001.59 1002.09 1002.62 1002.89 1002.64 1002.63 1002.56 1002.33 1002.32 1002.26 1001.82 1002.12 1003.01 1002.80 1002.85 1002.94 1003.18 1003.45 1003.38 1003.27 1003.58 1003.46 1003.76 1004.29 1004.30 1003.84 1003.93 1004.35 1004.24 1004.15 1004.32 1004.27 1004.26 1004.27 1004.69 1005.66 1006.13 1007.05
999.03 998.79 999.20 999.70 1000.20 1000.64 1001.16 1001.53 1002.28 1002.67 1002.39 1002.63 1002.49 1002.20 1002.10 1002.15 1002.01 1001.85 1001.80 1002.34 1002.14 1002.34 1002.46 1002.70 1003.03 1003.01 1003.34 1003.10 1003.12 1003.53 1004.07 1004.19 1003.98 1004.48 1004.62 1004.60 1004.78 1005.00 1004.94 1005.21 1005.72 1006.43 1007.02 1007.72
998.34 998.37 998.83 999.34 999.88 1000.27 1000.75 1001.11 1001.37 1001.58 1001.64 1001.92 1002.33 1002.19 1002.09 1002.02 1001.83 1001.66 1001.64 1001.51 1001.98 1002.13 1002.32 1002.37 1002.75 1003.12 1003.58 1003.29 1003.09 1003.12 1003.58 1003.93 1003.99 1004.54 1004.95 1005.19 1005.42 1005.42 1005.75 1006.28 1006.81 1007.43 1008.15 1008.64
997.65 997.97 998.52 999.15 999.69 1000.07 1000.55 1000.87 1001.01 1001.14 1001.43 1001.58 1002.23 1002.29 1002.33 1002.15 1001.84 1001.64 1001.64 1001.68 1001.78 1002.04 1002.34 1002.42 1003.01 1003.39 1003.63 1003.99 1003.63 1003.11 1003.14 1002.90 1003.02 1002.98 1003.31 1003.81 1004.61 1005.73 1006.38 1006.79 1007.47 1008.15 1008.77 1009.61
997.06 997.70 998.35 999.01 999.63 1000.15 1000.57 1001.02 1001.10 1001.02 1001.15 1001.54 1002.35 1002.77 1002.66 1002.45 1002.27 1002.25 1002.28 1002.36 1002.41 1002.54 1002.65 1003.23 1003.54 1003.69 1003.53 1003.36 1003.08 1002.47 1002.67 1003.05 1003.18 1003.24 1003.90 1004.74 1005.03 1006.19 1007.02 1007.56 1008.27 1008.90 1009.38 1009.94
996.75 997.54 998.32 999.02 999.67 1000.13 1000.54 1000.57 1000.82 1000.96 1001.11 1001.62 1002.66 1002.86 1002.98 1002.82 1002.63 1002.82 1002.82 1002.78 1002.90 1002.94 1003.31 1003.49 1003.59 1003.81 1003.61 1003.42 1002.67 1002.27 1002.95 1003.54 1004.02 1004.36 1004.82 1005.94 1006.22 1006.77 1007.70 1008.29 1009.15 1009.82 1010.45 1011.00
996.66 997.53 998.45 999.18 999.79 1000.43 1000.51 1000.64 1000.74 1000.96 1001.01 1001.41 1002.69 1003.33 1003.27 1003.08 1003.02 1003.27 1003.46 1003.24 1003.25 1003.61 1003.72 1003.95 1003.75 1004.09 1003.80 1003.19 1002.34 1002.68 1003.37 1004.25 1004.91 1005.42 1005.71 1005.66 1006.71 1007.78 1008.71 1009.41 1010.01 1010.66 1011.23 1011.68
996.56 997.75 998.65 999.62 1000.03 1000.41 1000.46 1000.62 1000.69 1000.70 1001.19 1001.87 1002.64 1002.95 1003.23 1003.26 1003.53 1003.74 1003.93 1003.85 1004.05 1004.51 1004.22 1004.23 1004.19 1003.72 1003.03 1001.96 1002.05 1002.66 1003.25 1003.90 1005.01 1006.37 1006.85 1007.27 1007.77 1008.95 1009.67 1010.14 1010.68 1011.01 1011.55 1012.04
996.81 997.87 998.90 999.94 1000.20 1000.33 1000.53 1000.88 1001.01 1001.34 1001.77 1002.10 1002.54 1002.85 1003.33 1003.71 1003.86 1004.42 1004.61 1004.66 1004.90 1004.96 1004.99 1004.76 1004.39 1003.17 1002.23 1002.20 1002.38 1002.89 1003.71 1004.56 1005.29 1006.39 1007.70 1008.26 1008.91 1009.43 1010.08 1010.40 1010.78 1011.19 1011.75 1012.37
996.50 997.86 999.31 1000.15 1000.34 1000.46 1001.00 1001.73 1001.81 1002.26 1002.41 1002.23 1002.66 1002.82 1003.34 1003.88 1004.01 1004.61 1005.16 1005.24 1005.45 1005.35 1005.50 1005.24 1004.48 1003.15 1002.56 1002.61 1002.83 1003.43 1004.29 1005.09 1005.68 1005.89 1006.30 1007.31 1007.91 1009.06 1009.89 1010.58 1011.09 1011.63 1012.07 1012.47
996.25 997.38 999.14 1000.17 1000.57 1001.14 1001.58 1002.21 1002.63 1002.38 1001.90 1002.17 1002.54 1003.01 1003.51 1004.28 1004.20 1004.62 1005.62 1005.69 1006.03 1005.78 1005.69 1005.57 1004.33 1002.97 1003.29 1003.61 1003.90 1004.33 1005.03 1005.77 1006.33 1006.51 1007.09 1007.85 1008.54 1009.25 1009.97 1010.65 1011.27 1011.81 1012.22 1012.59
996.70 997.54 999.27 1000.10 1001.29 1001.35 1001.48 1001.65 1001.79 1001.49 1001.48 1001.80 1002.35 1003.16 1003.75 1004.56 1004.62 1005.37 1005.57 1005.90 1006.37 1006.23 1006.07 1005.02 1003.57 1003.68 1004.14 1004.50 1004.83 1005.38 1005.89 1006.41 1006.93 1007.57 1008.09 1008.59 1009.30 1009.91 1010.38 1010.91 1011.41 1011.83 1012.29 1012.77
997.66 998.38 999.50 999.80 1000.44 1000.19 1000.23 1000.18 1000.18 1000.35 1000.59 1001.17 1001.97 1002.92 1003.64 1004.41 1004.77 1005.09 1005.60 1006.46 1006.39 1006.38 1005.89 1004.30 1003.77 1004.10 1004.76 1005.28 1005.79 1006.03 1006.69 1007.20 1007.82 1008.37 1008.97 1009.43 1009.88 1010.48 1010.96 1011.33 1011.78 1012.25 1012.76 1013.23
998.50 998.39 998.85 999.54 1000.23 1000.57 1000.80 1000.72 1000.62 1000.68 1000.64 1001.12 1002.15 1003.02 1003.58 1004.54 1004.96 1005.05 1005.93 1006.37 1006.04 1005.39 1004.42 1004.07 1004.21 1004.67 1005.14 1005.67 1006.19 1006.65 1007.20 1007.83 1008.47 1009.06 1009.58 1010.12 1010.56 1010.91 1011.42 1011.91 1012.34 1012.66 1013.05 1013.50
998.96 999.36 999.99 1000.55 1000.76 1001.07 1001.07 1000.94 1000.85 1000.70 1000.94 1001.30 1001.81 1002.82 1003.68 1004.34 1004.38 1005.03 1005.20 1005.45 1004.70 1003.99 1004.06 1004.30 1004.77 1005.19 1005.62 1006.07 1006.62 1007.23 1007.85 1008.47 1009.11 1009.72 1010.17 1010.54 1010.93 1011.34 1011.84 1012.40 1012.80 1013.18 1013.58 1013.93
999.58 1000.03 1000.20 1000.35 1000.38 1000.62 1000.82 1000.85 1000.87 1000.84 1001.16 1001.52 1001.89 1002.59 1003.46 1004.26 1004.40 1004.70 1004.82 1004.35 1003.99 1004.13 1004.52 1004.94 1005.29 1005.66 1006.34 1006.92 1007.48 1008.03 1008.61 1009.15 1009.67 1010.13 1010.59 1011.06 1011.56 1012.00 1012.53 1012.97 1013.66 1014.00 1014.14 1014.36
Wind_Speed
15 12 11 11 10 12 9 4 4 6 13 6 4 11 7 5 8 16 11 6 12 16 20 16 16 15 10 19 17 8 9 8 6 2 2 5 10 11 14 5 6 1 4 1
15 12 11 11 14 17 4 3 2 6 8 6 7 8 11 8 6 10 14 12 16 14 17 11 13 14 15 22 21 11 12 6 9 6 4 3 6 6 15 7 3 10 9 4
14 14 12 11 13 16 3 4 4 4 6 2 3 9 11 10 15 14 10 11 15 18 19 9 18 10 12 21 23 13 4 4 12 11 4 11 10 17 15 17 12 9 11 6
14 15 13 10 14 17 4 4 5 4 6 11 14 9 7 13 7 15 15 11 9 20 13 18 13 14 11 14 17 12 6 7 7 6 5 15 14 18 21 22 21 14 15 17
14 16 14 12 14 17 2 4 4 3 4 9 12 9 7 8 8 8 10 12 20 20 13 12 19 17 15 13 18 20 9 7 5 4 3 12 11 19 23 26 22 22 19 15
14 17 14 13 14 11 2 1 1 3 2 4 4 3 4 5 3 2 3 19 19 16 16 10 15 15 11 12 20 19 13 6 6 4 3 5 10 17 19 21 20 20 20 20
16 17 16 14 17 12 2 2 2 3 5 6 4 3 2 3 0 3 4 12 17 6 9 13 14 11 4 17 14 8 12 11 1 3 6 5 1 3 16 22 17 19 16 3
19 17 16 15 16 20 2 3 3 3 4 4 2 4 3 4 4 5 3 4 3 1 5 9 6 3 4 3 4 5 1 6 3 3 7 6 4 6 8 13 15 14 15 9
16 16 16 14 13 19 3 2 2 2 2 3 2 2 7 3 3 2 3 2 3 2 2 4 4 4 6 6 2 5 6 5 4 3 5 7 1 4 5 6 8 14 14 16
17 16 15 13 12 15 4 2 5 2 2 1 2 3 4 5 5 4 2 1 3 2 2 3 3 3 3 8 10 7 3 4 8 6 3 6 3 6 6 7 1 11 14 16
14 16 15 13 12 15 5 1 7 3 2 1 1 1 2 3 4 5 4 3 2 3 2 3 3 3 4 4 7 10 9 7 5 5 7 9 7 5 7 4 10 12 14 12
18 17 15 14 12 13 9 2 3 2 1 2 1 1 2 4 2 6 4 1 8 6 4 3 2 3 3 6 6 1 8 6 4 8 3 2 0 3 2 8 13 9 13 10
18 17 16 14 13 12 11 3 5 2 3 1 2 1 1 1 3 2 3 2 3 4 1 3 2 3 3 6 4 5 3 3 3 5 2 0 2 5 6 10 10 10 11 12
15 17 16 14 11 10 11 3 4 1 3 2 2 2 1 5 4 1 1 4 5 5 2 2 3 2 3 2 3 2 1 9 7 2 1 4 3 6 10 11 12 12 9 8
15 18 16 13 11 9 5 1 2 1 1 3 3 1 4 5 3 5 6 6 4 2 2 2 2 3 4 1 1 3 7 7 6 3 14 2 15 12 11 14 12 11 12 8
18 17 15 13 11 12 2 3 2 2 1 3 4 2 2 4 7 8 7 4 3 2 2 2 2 1 1 4 4 2 6 4 1 2 10 3 14 13 9 11 10 8 9 8
20 18 14 13 13 3 1 1 3 3 2 2 3 2 1 2 1 2 2 3 3 1 2 2 3 2 2 2 4 5 9 6 5 10 12 9 12 8 9 11 10 10 9 7
21 18 14 15 15 8 2 2 2 3 4 2 4 1 1 2 2 2 3 1 1 4 2 1 2 3 2 4 5 7 10 8 10 5 4 5 13 13 12 11 10 10 8 7
22 22 20 5 1 2 2 6 3 2 2 4 2 5 3 1 2 1 2 2 2 1 1 1 2 3 6 6 8 14 14 12 14 8 9 10 12 11 10 10 8 7 7 6
28 8 3 3 3 5 6 3 2 4 3 2 2 1 3 1 1 2 2 2 2 1 1 1 2 5 5 4 4 10 13 12 15 13 7 8 7 9 9 8 7 6 6 6
2 4 3 1 2 2 3 3 2 1 1 2 3 2 5 0 3 3 1 2 1 3 1 2 2 5 4 3 7 8 10 13 8 4 7 9 12 13 11 8 7 6 6 6
6 9 6 3 2 3 5 3 2 4 5 4 5 4 3 2 0 3 1 3 1 3 2 2 5 3 2 5 7 10 11 10 6 5 12 9 10 9 9 7 7 7 6 6
3 5 5 3 1 4 9 11 5 5 7 5 5 5 4 2 2 4 2 3 2 3 3 5 4 2 3 5 7 9 10 9 10 11 9 11 10 8 6 7 4 6 5 4
4 4 8 7 6 6 6 5 5 2 5 10 7 5 4 2 2 3 4 2 4 3 4 6 1 3 6 5 6 11 10 10 10 10 9 9 9 7 6 5 5 5 5 5
2 2 4 3 4 3 2 1 4 2 8 8 6 5 4 3 4 1 4 5 5 6 5 2 2 7 8 9 10 11 10 9 8 8 8 7 7 6 5 4 4 4 4 4
2 3 4 3 4 2 2 3 3 1 8 3 3 4 4 3 5 5 7 7 7 3 3 2 6 9 8 9 10 9 8 8 8 6 5 6 5 5 5 4 3 3 3 4
2 2 3 2 2 3 4 2 3 1 6 3 3 5 3 5 3 4 4 6 1 2 2 5 6 9 9 9 9 8 8 8 7 6 5 5 5 6 5 5 3 3 4 4
Wind_Direction
215 203 208 227 193 143 142 172 226 140 149 160 204 222 205 210 209 198 197 226 198 191 182 184 187 190 210 186 190 198 226 234 158 157 20 196 191 182 200 203 174 239 339 154
214 194 196 217 173 158 149 207 153 162 170 225 207 233 232 241 254 177 173 194 207 181 177 172 196 197 215 187 179 191 182 206 142 139 172 31 200 183 208 210 300 206 223 169
209 186 190 211 189 177 160 172 176 141 216 260 261 213 241 236 223 198 187 194 200 174 180 186 190 205 180 192 192 206 181 215 210 205 207 153 193 199 203 213 222 202 226 231
203 184 187 206 181 172 152 190 220 171 191 238 241 248 279 189 222 215 183 181 198 175 172 187 181 185 173 180 197 206 236 227 208 215 180 182 192 192 201 216 224 227 241 232
198 181 185 192 179 167 164 200 201 185 265 225 218 221 220 235 185 186 169 173 196 181 170 192 185 176 173 176 194 203 218 215 191 185 183 210 218 213 207 214 223 236 250 247
203 182 184 189 176 156 182 151 210 264 219 208 163 222 228 197 168 95 342 169 169 183 171 217 183 178 164 178 178 189 193 186 194 201 154 172 245 222 214 218 223 225 234 242
278 182 185 188 179 180 177 167 186 204 260 234 185 272 266 174 256 100 30 162 177 128 119 113 103 101 111 151 144 189 197 201 269 124 155 220 310 16 225 220 226 227 246 243
305 184 185 190 190 191 164 142 213 217 259 251 184 222 122 116 46 63 55 59 7 9 194 118 109 65 53 354 26 40 204 164 93 184 220 316 213 197 174 185 234 217 224 168
265 183 188 191 201 192 148 166 166 216 278 217 85 152 170 150 104 64 9 29 307 298 126 122 138 175 131 169 201 71 64 26 130 182 230 222 52 153 166 170 256 180 173 154
189 183 188 192 197 181 151 171 179 200 226 174 158 202 190 136 101 90 136 296 37 308 77 124 141 134 141 158 162 168 127 137 202 209 270 283 148 149 167 188 43 151 156 153
251 186 188 189 193 185 156 125 187 237 197 298 232 347 224 146 152 150 154 119 357 62 103 107 176 144 174 153 153 173 163 158 181 179 228 255 145 130 201 81 126 135 133 132
298 184 187 189 190 185 172 144 167 192 216 17 319 56 312 301 36 132 187 288 152 179 114 180 139 137 166 166 176 154 185 212 197 208 211 30 147 343 67 151 137 133 124 126
293 184 184 186 189 192 178 138 144 185 145 131 223 177 352 298 6 322 162 199 138 169 65 147 132 136 165 174 190 126 216 190 192 177 160 294 193 123 124 129 122 121 122 128
284 183 180 180 183 202 168 174 170 209 123 161 125 273 37 327 331 205 314 122 113 103 181 125 140 152 233 162 92 201 99 160 147 99 124 122 184 159 139 123 121 117 108 122
245 177 173 174 174 182 138 123 194 211 282 135 134 123 17 5 26 71 96 110 101 128 114 87 104 100 156 76 156 193 192 158 188 197 175 178 172 159 150 139 140 139 133 126
187 166 166 163 159 147 148 164 207 179 172 137 145 53 40 45 76 77 69 64 69 64 90 102 104 83 241 166 202 136 169 183 304 119 144 67 138 140 148 133 134 127 125 124
161 157 156 153 148 110 226 129 110 154 118 126 90 128 47 337 57 58 44 41 71 69 116 110 135 146 177 245 206 161 174 163 121 130 118 108 159 155 141 126 116 106 96 102
152 143 139 127 111 116 81 64 111 174 106 57 103 129 186 334 94 102 348 71 60 28 79 139 165 149 187 239 214 159 149 136 141 106 23 132 118 116 112 116 126 122 128 127
136 126 116 93 81 117 175 145 110 60 99 123 123 151 178 147 79 87 64 347 75 346 123 157 216 167 220 215 187 184 169 169 155 101 95 107 113 124 130 132 138 141 160 170
129 109 110 138 186 111 131 22 66 23 3 55 107 111 130 72 110 77 96 10 96 136 86 325 236 250 250 213 221 175 169 142 138 118 109 114 125 149 156 171 168 168 169 170
94 120 103 76 98 92 36 85 117 71 4 165 127 146 133 275 121 125 348 134 36 170 154 228 260 259 237 172 142 136 132 151 153 127 133 153 152 158 163 162 160 164 166 177
150 113 101 107 86 68 112 156 153 202 207 152 145 123 107 110 74 103 21 106 184 180 117 203 251 251 69 138 120 125 135 138 119 125 138 136 140 143 140 143 163 172 165 151
81 67 97 141 253 131 180 181 195 192 166 166 160 123 113 123 66 77 126 132 138 127 201 233 241 73 124 134 125 120 120 112 108 99 98 109 111 114 125 133 127 142 149 158
77 141 144 195 174 211 182 187 164 137 136 138 128 108 118 123 101 139 121 113 154 186 234 236 236 170 140 135 129 137 125 118 119 118 121 120 123 119 107 104 125 137 160 168
125 150 147 147 90 65 87 91 116 143 145 134 112 86 99 114 122 105 122 159 216 222 231 225 164 148 139 135 139 130 125 127 127 131 130 129 129 130 121 114 125 131 126 162
72 86 116 120 135 128 149 147 124 175 148 103 72 121 116 131 144 155 195 177 218 223 196 134 135 137 127 124 125 119 118 126 124 129 132 126 125 127 115 109 111 135 171 174
67 79 63 97 58 133 146 147 125 104 169 135 129 128 127 118 133 192 197 209 214 149 136 135 145 137 129 120 117 120 119 118 117 119 113 109 113 121 132 144 108 120 102 98